GW4452 Weather Reports


time (UTC)temp
F
wind
direction
speed
knots
gust
knots
rain 1hr
in
rain 24hr
in
rain mn
in
humidity
%
barometer
mb
20260505162204 72 134 2.6 5.2 0.00 0.00 0.00 81 1016.9
20260505161704 72 149 2.6 6.1 0.00 0.00 0.00 81 1016.9
20260505161205 72 288 1.7 7.8 0.00 0.00 0.00 80 1016.9
20260505160204 72 107 0.9 5.2 0.00 0.00 0.00 80 1016.9
20260505153205 72 126 4.3 7.8 0.00 0.00 0.00 80 1016.5
20260505152704 72 106 2.6 6.1 0.00 0.00 0.00 81 1016.7
20260505152204 72 84 0.9 7.0 0.00 0.00 0.00 81 1016.5
20260505151705 72 169 1.7 7.0 0.00 0.00 0.00 81 1016.5
20260505140204 73 116 2.6 7.8 0.00 0.00 0.00 78 1015.9
20260505130205 75 128 2.6 11.3 0.00 0.00 0.00 72 1015.5
20260505124704 76 127 3.5 7.8 0.00 0.00 0.00 70 1015.5
20260505123704 76 141 4.3 12.2 0.00 0.00 0.00 70 1015.2
20260505123204 77 142 4.3 12.2 0.00 0.00 0.00 67 1015.2
20260505122704 77 91 4.3 7.0 0.00 0.00 0.00 68 1015.2
20260505122205 77 130 2.6 6.1 0.00 0.00 0.00 67 1015.0
20260505121705 77 114 4.3 8.7 0.00 0.00 0.00 65 1015.2
20260505121205 77 306 4.3 7.8 0.00 0.00 0.00 64 1014.9
20260505120704 78 270 1.7 8.7 0.00 0.00 0.00 65 1015.2
20260505120204 78 104 5.2 8.7 0.00 0.00 0.00 65 1015.1
20260505115705 78 100 3.5 7.8 0.00 0.00 0.00 65 1015.1
20260505115203 78 49 2.6 8.7 0.00 0.00 0.00 64 1015.2
20260505114704 78 114 4.3 8.7 0.00 0.00 0.00 63 1015.1
20260505114204 78 131 4.3 7.8 0.00 0.00 0.00 63 1015.0
20260505113704 78 238 2.6 10.4 0.00 0.00 0.00 62 1014.9
20260505112704 79 133 3.5 7.8 0.00 0.00 0.00 62 1014.6
20260505112204 78 18 2.6 8.7 0.00 0.00 0.00 61 1014.9
20260505111705 79 143 3.5 8.7 0.00 0.00 0.00 60 1014.9
20260505111204 80 112 3.5 10.4 0.00 0.00 0.00 59 1014.7
20260505110704 80 57 3.5 10.4 0.00 0.00 0.00 57 1014.5
20260505102205 81 59 1.7 8.7 0.00 0.00 0.00 58 1014.6
20260505101704 80 316 4.3 8.7 0.00 0.00 0.00 57 1014.6
20260505101204 80 130 4.3 7.8 0.00 0.00 0.00 58 1014.9
20260505100704 81 115 4.3 10.4 0.00 0.00 0.00 58 1014.9
20260505100204 80 139 2.6 10.4 0.00 0.00 0.00 59 1014.8
20260505095706 81 122 2.6 8.7 0.00 0.00 0.00 58 1014.7
20260505095205 81 125 2.6 8.7 0.00 0.00 0.00 60 1014.8
20260505094704 81 90 3.5 7.8 0.00 0.00 0.00 60 1014.7
20260505093704 81 141 3.5 7.0 0.00 0.00 0.00 60 1014.9
20260505093206 81 122 2.6 7.8 0.00 0.00 0.00 59 1015.1
20260505092704 81 155 5.2 7.8 0.00 0.00 0.00 59 1015.0
20260505092204 81 98 2.6 7.8 0.00 0.00 0.00 61 1015.1
20260505091204 80 185 3.5 8.7 0.00 0.00 0.00 60 1015.2
20260505090704 80 290 3.5 8.7 0.00 0.00 0.00 63 1014.9
20260505090204 80 124 4.3 11.3 0.00 0.00 0.00 63 1015.2
20260505085704 81 237 4.3 6.1 0.00 0.00 0.00 61 1015.2
20260505085205 81 329 1.7 13.0 0.00 0.00 0.00 62 1015.2
20260505084704 82 179 4.3 10.4 0.00 0.00 0.00 61 1015.2
20260505084204 81 19 2.6 6.1 0.00 0.00 0.00 62 1015.4
20260505083704 81 129 3.5 10.4 0.00 0.00 0.00 61 1015.3
20260505083204 81 359 2.6 10.4 0.00 0.00 0.00 60 1015.5
20260505082704 81 212 3.5 10.4 0.00 0.00 0.00 60 1015.6
20260505082204 81 103 2.6 7.8 0.00 0.00 0.00 60 1015.6
20260505081704 81 102 3.5 7.8 0.00 0.00 0.00 61 1015.8
20260505081204 80 237 2.6 10.4 0.00 0.00 0.00 61 1015.9
20260505080705 80 131 3.5 7.8 0.00 0.00 0.00 62 1015.9
20260505080205 79 301 6.1 7.8 0.00 0.00 0.00 62 1015.9
20260505075704 80 99 3.5 11.3 0.00 0.00 0.00 61 1015.9
20260505075204 81 241 3.5 7.0 0.00 0.00 0.00 60 1015.9
20260505074704 80 36 2.6 10.4 0.00 0.00 0.00 61 1015.9
20260505074205 80 86 4.3 11.3 0.00 0.00 0.00 62 1015.9
20260505073204 79 135 7.0 13.0 0.00 0.00 0.00 63 1015.9
20260505072705 79 76 4.3 12.2 0.00 0.00 0.00 64 1015.9
20260505072204 79 105 6.1 12.2 0.00 0.00 0.00 63 1016.2
20260505071704 79 114 7.0 8.7 0.00 0.00 0.00 63 1016.2
20260505071204 80 103 4.3 11.3 0.00 0.00 0.00 63 1016.3
20260505070204 80 85 3.5 10.4 0.00 0.00 0.00 64 1016.4
20260505065704 80 133 4.3 8.7 0.00 0.00 0.00 64 1016.6
20260505065204 81 118 4.3 8.7 0.00 0.00 0.00 64 1016.4
20260505064705 80 140 2.6 7.8 0.00 0.00 0.00 65 1016.6
20260505064204 79 332 1.7 13.0 0.00 0.00 0.00 66 1016.6
20260505063704 79 107 4.3 7.8 0.00 0.00 0.00 67 1016.9
20260505063204 78 137 4.3 12.2 0.00 0.00 0.00 67 1016.8
20260505062204 80 140 7.0 11.3 0.00 0.00 0.00 64 1016.7
20260505061704 80 39 3.5 8.7 0.00 0.00 0.00 64 1016.8
20260505061204 80 110 2.6 7.0 0.00 0.00 0.00 64 1016.9
20260505060705 79 206 1.7 7.8 0.00 0.00 0.00 66 1016.9
20260505060205 79 132 4.3 8.7 0.00 0.00 0.00 65 1017.2
20260505055204 78 134 6.1 13.0 0.00 0.00 0.00 65 1017.3
20260505054205 79 68 2.6 8.7 0.00 0.00 0.00 64 1016.9
20260505053705 79 158 3.5 11.3 0.00 0.00 0.00 67 1017.3
20260505053204 78 133 4.3 11.3 0.00 0.00 0.00 66 1017.3
20260505052204 78 266 0.9 10.4 0.00 0.00 0.00 68 1017.3
20260505051704 78 130 2.6 10.4 0.00 0.00 0.00 68 1017.3
20260505051204 77 125 1.7 7.0 0.00 0.00 0.00 70 1017.4
20260505050704 77 103 2.6 8.7 0.00 0.00 0.00 70 1017.3
20260505050204 78 127 1.7 8.7 0.00 0.00 0.00 70 1017.3
20260505041704 78 155 1.7 4.3 0.00 0.00 0.00 68 1017.2
20260505041204 78 153 1.7 4.3 0.00 0.00 0.00 68 1017.0
20260505040704 78 180 1.7 4.3 0.00 0.00 0.00 69 1016.9
20260505040206 77 110 1.7 4.3 0.00 0.00 0.00 71 1016.8
20260505035705 77 128 1.7 4.3 0.00 0.00 0.00 70 1016.9
20260505034706 76 150 0.9 2.6 0.00 0.00 0.00 71 1016.6
20260505034204 77 193 2.6 2.6 0.00 0.00 0.00 69 1016.6
20260505033704 76 195 0.9 2.6 0.00 0.00 0.00 71 1016.7
20260505032706 74 166 0.9 1.7 0.00 0.00 0.00 75 1016.7
20260505032204 73 98 1.7 2.6 0.00 0.00 0.00 77 1016.7
20260505031704 72 5 0.9 4.3 0.00 0.00 0.00 80 1016.9
20260505031204 70 76 0.9 4.3 0.00 0.00 0.00 82 1016.9
20260505030704 70 330 0.9 1.7 0.00 0.00 0.00 84 1016.9
20260505030204 69 124 1.7 1.7 0.00 0.00 0.00 86 1016.9
20260505025205 68 345 0.9 2.6 0.00 0.00 0.00 88 1017.0
20260505024704 68 271 0.0 1.7 0.00 0.00 0.00 88 1017.0
20260505023705 68 317 1.7 2.6 0.00 0.00 0.00 89 1017.1
20260505022705 67 309 1.7 4.3 0.00 0.00 0.00 91 1016.9
20260505022205 67 129 1.7 2.6 0.00 0.00 0.00 92 1016.9
20260505021204 67 173 0.9 2.6 0.00 0.00 0.00 92 1016.6
20260505020705 67 247 0.9 2.6 0.00 0.00 0.00 92 1016.6
20260505020203 67 303 0.9 2.6 0.00 0.00 0.00 93 1016.7
20260505014706 66 65 0.9 2.6 0.00 0.00 0.00 95 1016.6
20260505014204 66 74 0.9 2.6 0.00 0.00 0.00 95 1016.6
20260505013704 65 152 0.9 2.6 0.00 0.00 0.00 95 1016.6
20260505013204 65 138 0.9 2.6 0.00 0.00 0.00 95 1016.6
20260505012704 65 225 0.9 2.6 0.00 0.00 0.00 95 1016.8
20260505012204 65 144 0.9 2.6 0.00 0.00 0.00 95 1016.6
20260505011704 65 145 1.7 2.6 0.00 0.00 0.00 95 1016.5
20260505011204 65 146 0.9 2.6 0.00 0.00 0.00 95 1016.6
20260505010704 65 142 0.9 2.6 0.00 0.00 0.00 95 1016.6
20260505010204 64 117 0.9 2.6 0.00 0.00 0.00 95 1016.6
20260505004704 65 109 0.9 2.6 0.00 0.00 0.00 94 1016.8
20260505004204 65 117 0.9 4.3 0.00 0.00 0.00 94 1016.6
20260505003705 65 136 0.9 4.3 0.00 0.00 0.00 94 1016.9
20260505003205 65 100 0.9 2.6 0.00 0.00 0.00 94 1016.6
20260505002204 65 134 0.9 4.3 0.00 0.00 0.00 94 1016.6
20260505001204 65 116 1.7 2.6 0.00 0.00 0.00 93 1016.6
20260505000704 65 80 0.9 2.6 0.00 0.00 0.00 93 1016.8
20260504235705 65 212 1.7 2.6 0.00 0.00 0.00 93 1016.6
20260504235204 65 225 0.0 2.6 0.00 0.00 0.00 93 1016.6
20260504234204 65 149 1.7 2.6 0.00 0.00 0.00 92 1016.6
20260504233704 65 74 1.7 2.6 0.00 0.00 0.00 91 1016.6
20260504233204 66 184 0.9 4.3 0.00 0.00 0.00 91 1016.6
20260504232705 66 162 0.9 6.1 0.00 0.00 0.00 91 1016.6
20260504232204 66 120 1.7 2.6 0.00 0.00 0.00 90 1016.9
20260504231704 66 124 0.9 4.3 0.00 0.00 0.00 90 1016.6
20260504231204 66 132 2.6 4.3 0.00 0.00 0.00 90 1016.9
20260504230704 66 352 1.7 4.3 0.00 0.00 0.00 90 1016.8
20260504230204 66 119 1.7 4.3 0.00 0.00 0.00 89 1016.8
20260504225704 66 130 1.7 4.3 0.00 0.00 0.00 89 1016.9
20260504225204 67 161 1.7 6.1 0.00 0.00 0.00 89 1016.9
20260504224704 67 134 3.5 6.1 0.00 0.00 0.00 90 1016.8
20260504224204 67 194 0.9 2.6 0.00 0.00 0.00 89 1016.9
20260504223704 67 215 2.6 7.0 0.00 0.00 0.00 89 1016.9
20260504223204 67 128 2.6 7.0 0.00 0.00 0.00 89 1016.8
20260504222205 66 14 0.9 2.6 0.00 0.00 0.00 89 1016.9
20260504221704 66 139 1.7 4.3 0.00 0.00 0.00 89 1017.3
20260504221204 66 127 2.6 4.3 0.00 0.00 0.00 89 1017.0
20260504220704 66 158 1.7 5.2 0.00 0.00 0.00 88 1017.3
20260504220204 66 143 2.6 4.3 0.00 0.00 0.00 88 1017.1
20260504215704 67 109 1.7 4.3 0.00 0.00 0.00 87 1017.2
20260504214705 67 324 1.7 2.6 0.00 0.00 0.00 86 1017.3
20260504214204 67 72 0.0 0.9 0.00 0.00 0.00 85 1017.3
20260504213704 67 17 0.0 1.7 0.00 0.00 0.00 85 1017.3
20260504213205 67 348 0.9 1.7 0.00 0.00 0.00 85 1017.3
20260504212706 68 53 0.0 0.9 0.00 0.00 0.00 85 1017.3
20260504212204 68 60 0.0 1.7 0.00 0.00 0.00 85 1017.3
20260504211705 68 135 0.9 1.7 0.00 0.00 0.00 84 1017.3
20260504211204 68 115 0.0 1.7 0.00 0.00 0.00 84 1017.3
20260504210706 68 116 0.0 1.7 0.00 0.00 0.00 84 1017.3
20260504210204 69 346 0.0 1.7 0.00 0.00 0.00 84 1017.3
20260504205704 69 185 0.0 2.6 0.00 0.00 0.00 83 1017.6
20260504205205 69 309 0.0 2.6 0.00 0.00 0.00 82 1017.3
20260504204704 69 286 0.0 1.7 0.00 0.00 0.00 82 1017.3
20260504204204 69 331 0.9 2.6 0.00 0.00 0.00 82 1017.3
20260504203704 69 326 0.0 1.7 0.00 0.00 0.00 82 1017.5
20260504202704 69 287 1.7 2.6 0.00 0.00 0.00 83 1017.4
20260504202204 69 293 0.0 2.6 0.00 0.00 0.00 83 1017.3
20260504201205 69 324 0.0 1.7 0.00 0.00 0.00 82 1017.7
20260504200204 69 106 0.0 1.7 0.00 0.00 0.00 81 1017.6
20260504195704 70 147 1.7 1.7 0.00 0.00 0.00 81 1017.8
20260504194704 70 93 0.9 2.6 0.00 0.00 0.00 80 1017.6
20260504194204 70 65 0.9 2.6 0.00 0.00 0.00 80 1017.6
20260504192205 71 143 0.9 2.6 0.00 0.00 0.00 79 1017.6
20260504191704 70 347 0.9 2.6 0.00 0.00 0.00 79 1017.6
20260504191204 71 180 0.9 4.3 0.00 0.00 0.00 78 1017.6
20260504190704 71 327 1.7 5.2 0.00 0.00 0.00 78 1017.6
20260504190204 70 317 1.7 5.2 0.00 0.00 0.00 79 1017.6
20260504185704 71 346 0.9 2.6 0.00 0.00 0.00 79 1017.6
20260504185204 71 306 1.7 4.3 0.00 0.00 0.00 79 1017.6
20260504184704 71 343 1.7 5.2 0.00 0.00 0.00 78 1017.6
20260504184206 71 310 2.6 5.2 0.00 0.00 0.00 78 1017.6
20260504183704 71 239 1.7 2.6 0.00 0.00 0.00 79 1017.6
20260504183204 71 28 0.9 2.6 0.00 0.00 0.00 79 1017.7
20260504182705 71 185 1.7 2.6 0.00 0.00 0.00 79 1017.6
20260504182204 71 129 1.7 2.6 0.00 0.00 0.00 79 1017.6
20260504181705 71 130 0.9 2.6 0.00 0.00 0.00 79 1017.6
20260504180704 70 341 0.9 2.6 0.00 0.00 0.00 80 1017.6
20260504180204 70 328 1.7 2.6 0.00 0.00 0.00 80 1017.6
20260504175703 70 156 0.9 2.6 0.00 0.00 0.00 80 1017.6
20260504175204 70 115 0.9 2.6 0.00 0.00 0.00 81 1017.6
20260504174705 70 128 0.9 2.6 0.00 0.00 0.00 81 1017.6
20260504174205 70 346 0.9 2.6 0.00 0.00 0.00 81 1017.6
20260504173704 70 263 0.9 1.7 0.00 0.00 0.00 80 1017.8
20260504173204 71 2 0.0 1.7 0.00 0.00 0.00 80 1017.8
20260504172704 71 317 0.0 1.7 0.00 0.00 0.00 80 1017.9
20260504172204 71 17 0.9 1.7 0.00 0.00 0.00 79 1017.9
20260504171204 71 58 1.7 2.6 0.00 0.00 0.00 78 1017.9
20260504170705 71 289 1.7 6.1 0.00 0.00 0.00 78 1017.6
20260504170204 71 202 0.9 5.2 0.00 0.00 0.00 78 1017.9